Regional Weather Roundup
Issued by NWS

Home | Current Version | Previous Version | Text Only | Print | Product List | Glossary Off
Versions: 1 2 3 4 5 6 7 8 9 10 11 12 13 14 15 16 17 18 19 20 21 22 23 24 25 26 27 28 29 30 31 32 33 34 35 36 37 38 39 40 41 42 43 44 45 46 47 48 49 50

000
ASUS43 KMPX 311110
RWRMN
WEATHER ROUNDUP FOR MINNESOTA
NATIONAL WEATHER SERVICE TWIN CITIES/CHANHASSEN MN
600 AM CDT MON AUG 31 2015


NOTE: "FAIR" INDICATES FEW OR NO CLOUDS BELOW 12,000 FEET WITH NO
SIGNIFICANT WEATHER AND/OR OBSTRUCTIONS TO VISIBILITY. N/A MEANS
CURRENT SKY AND/OR WEATHER CONDITIONS ARE NOT AVAILABLE.

MNZ060>063-068>070-311200-
   Twin Cities Metro

CITY           SKY/WX    TMP DP  RH WIND       PRES   REMARKS
TWIN CITIES    MOCLDY    63  62  97 SE7       29.93S FOG
ST PAUL        CLOUDY    64  63  96 SE8       29.93S FOG
CRYSTAL        PTCLDY    65  63  93 S5        29.90S
BLAINE         PTCLDY    64  64 100 S5        29.92S FOG
LAKEVILLE      CLOUDY    64  64 100 S7        29.93F FOG
EDEN PRAIRIE   CLEAR     66  64  93 S9        29.91F
SOUTH ST PAUL  CLOUDY    65  64  95 S7        29.93S FOG
LAKE ELMO      MOCLDY    63  61  94 S7        29.95S FOG
$$
MNZ001>005-007-008-013>017-022>024-027-028-311200-
   Northwest Minnesota

CITY           SKY/WX    TMP DP  RH WIND       PRES   REMARKS
BEMIDJI        CLEAR     64  59  82 S14       29.75F
HALLOCK        PTCLDY    66  64  94 S10       29.62F
ROSEAU         PTCLDY    66  61  82 S7        29.66R
WARROAD        CLEAR     66  63  88 S7        29.67S
THIEF RVR FALL PTCLDY   N/A N/A N/A S9        29.67F
CROOKSTON      PTCLDY    66  61  82 S14       29.67F
FOSSTON        CLEAR     64  55  72 S9        29.70F
DETROIT LAKES  CLEAR     66  59  77 S14       29.75F
MOORHEAD       CLEAR     66  61  82 S17G23    29.68F
PARK RAPIDS    CLEAR     63  60  90 S12       29.78F FOG
MAHNOMEN       FAIR      66  58  75 S12       29.70F
$$
MNZ006-009>011-018-025>026-311200-
   North Central Minnesota

CITY           SKY/WX    TMP DP  RH WIND       PRES   REMARKS
BAUDETTE       CLEAR     64  59  83 S7        29.69F
FLAG ISLAND    CLEAR     68  64  88 S6        29.66S
INTL FALLS     PTCLDY    64  61  90 VRB5      29.74F
WASKISH        CLEAR     64  61  88 S8        29.71F
BIG FORK       CLEAR     63  61  94 S7        29.79F
LONGVILLE      CLEAR     64  63  94 S8        29.81F
GRAND RAPIDS     N/A     63  61  94 S12       29.82F
CRANE LAKE     CLEAR     63  61  94 S7        29.80F
COOK           PTCLDY    64  61  88 S5        29.83S
WALKER         FAIR      64  60  85 S9G20     29.78S
$$
MNZ012-019>021-037-311200-
   Northeast Minnesota

CITY           SKY/WX    TMP DP  RH WIND       PRES   REMARKS
DULUTH         MOCLDY    64  62  93 S12       29.88F FOG
ELY            CLEAR     63  59  88 S5        29.85S
HIBBING        MOCLDY    63  61  93 SE5       29.85F
EVELETH        FOG       55  55 100 CALM      29.87F VSB 1/2
DULUTH HARBOR  CLEAR     64  63  94 CALM      29.88S
TWO HARBORS    CLOUDY    68  63  83 SW7       29.87S
SILVER BAY     CLOUDY    66  64  94 SW5       29.87S
GRAND MARAIS     N/A     57  56  96 W3        29.88S
G MARAIS ARPRT FOG       63  61  94 S5        29.92S VSB<1/4
$$
MNZ029>031-032-039>041-046>048-054>057-064-311200-
   West Central Minnesota

CITY           SKY/WX    TMP DP  RH WIND       PRES   REMARKS
FERGUS FALLS   CLEAR     66  57  72 S18       29.73F
WHEATON        CLEAR     61  57  88 SE9       29.75S
MORRIS         CLEAR     63  63 100 S14       29.79S FOG
ALEXANDRIA     CLEAR     65  61  87 S10       29.84S
ELBOW LAKE     FAIR      64  61  90 S17       29.77S
WADENA         CLEAR     61  59  94 S6        29.80S
GLENWOOD       PTCLDY    63  63 100 S10       29.85S FOG
APPLETON       CLEAR     64  61  88 SE8       29.80F
BENSON         CLEAR     63  61  94 S8        29.83S FOG
ORTONVILLE     CLEAR     63  59  88 SE7       29.78S
MADISON        CLEAR     66  63  88 S12       29.81S
WILLMAR        FAIR      64  64 100 SE7       29.87F FOG
$$
MNZ033>034-036-042>043-049>051-058-059-311200-
   Central Minnesota

CITY           SKY/WX    TMP DP  RH WIND       PRES   REMARKS
ST CLOUD       PTCLDY    64  64 100 S9        29.88S FOG
SAUK CENTRE    FAIR      62  62  98 SE7       29.85S FOG
PAYNESVILLE    MOCLDY    64  64  97 SE7       29.87F FOG
AITKIN         CLEAR     64  59  82 S8        29.84S HAZE
PINE RIVER     CLEAR     63  63 100 S6        29.85F FOG
BRAINERD       PTCLDY    63  62  97 S10       29.85S FOG
STAPLES        CLEAR     63  61  94 S12G17    29.82S
LONG PRAIRIE   MOCLDY    61  61 100 SE12      29.85S FOG
LITTLE FALLS     N/A     63  61  94 SE7       29.86S FOG
LITCHFIELD     CLEAR     66  66 100 S6        29.90R FOG
BUFFALO        CLOUDY    66  63  89 S6        29.91S
MAPLE LAKE     CLOUDY    67  65  96 S6        29.90F FOG
$$
MNZ037-044-045-052-053-311200-
   East Central Minnesota

CITY           SKY/WX    TMP DP  RH WIND       PRES   REMARKS
PRINCETON      MOCLDY    66  64  94 S5        29.90S
MORA           CLOUDY    64  63  94 S8        29.91S
CAMBRIDGE      CLOUDY    68  61  77 S8        29.89S
RUSH CITY      CLOUDY    65  64  96 S7        29.91S
MOOSE LAKE     CLOUDY    64  61  88 S8        29.87S
HINCKLEY       CLOUDY    64  64 100 S8        29.91S
CLOQUET        CLOUDY    64  63  94 S7        29.88F
MCGREGOR       CLEAR     63  61  94 S7        29.86F
$$
MNZ071>073-080-081-089-090-097-098-311200-
   Southwest Minnesota

CITY           SKY/WX    TMP DP  RH WIND       PRES   REMARKS
MONTEVIDEO     CLEAR     63  63 100 SW9       29.85S FOG
GRANITE FALLS  CLOUDY    63  63  98 S6        29.86F FOG
CANBY          CLEAR     68  62  81 S14G25    29.81F
MARSHALL       CLEAR     66  61  82 SW21G26   29.85S
REDWOOD FALLS  CLEAR     64  63  96 S8        29.88S
OLIVIA         CLEAR     59  57  94 S8        29.86F FOG
PIPESTONE      CLEAR     64  63  94 SW13      29.90S FOG
WINDOM         CLEAR     64  63  94 S9        29.92S FOG
WORTHINGTON    CLEAR     66  61  82 S15       29.93S
JACKSON        CLEAR     66  64  94 S13       29.94F FOG
TRACY          CLEAR     68  65  90 S18G25    29.87S
SLAYTON        CLEAR     65  65 100 S10G17    29.91F FOG
$$
MNZ065>067-074>077-082>085-091>093-311200-
   South Central Minnesota

CITY           SKY/WX    TMP DP  RH WIND       PRES   REMARKS
MANKATO        CLOUDY    66  63  88 S12       29.93S
NEW ULM        CLEAR     63  63 100 S10       29.91S FOG
ST JAMES       CLEAR     64  64 100 S8        29.93S
FAIRMONT       CLEAR     64  59  82 S10       29.94S
GLENCOE        CLEAR     64  64 100 S3        29.91S FOG
FARIBAULT      CLOUDY    66  66 100 S7        29.95S FOG
OWATONNA       CLOUDY    66  64  94 S8        29.96S FOG
WASECA           N/A     63  63 100 S7        29.97S FOG
ALBERT LEA     CLOUDY    66  66 100 S7        29.98S FOG
$$
MNZ078>079-086>088-094>096-311200-
   Southeast Minnesota

CITY           SKY/WX    TMP DP  RH WIND       PRES   REMARKS
ROCHESTER      CLOUDY    66  65  96 S13       30.00S FOG
RED WING       CLOUDY    64  63  94 SE3       29.95S FOG
STANTON        CLOUDY    67  65  91 S5        29.93S FOG
DODGE CENTER   CLOUDY    64  63  94 S13G18    29.98S FOG
WINONA         CLOUDY    63  63 100 CALM      29.99S
PRESTON        FOG       64  63  96 SW7       30.01S VSB 1/2
$$
ABBREVIATIONS USED IN REMARKS
   TC - TEMPERATURES IN CELSIUS
  WCI - WIND CHILL INDEX
   HX - HEAT INDEX
  VSB - VISIBILITY
$$



USA.gov is the U.S. government's official web portal to all federal, state and local government web resources and services.